TimeCST,TemperatureF,Dew PointF,Humidity,Sea Level PressureIn,VisibilityMPH,Wind Direction,Wind SpeedMPH,Gust SpeedMPH,PrecipitationIn,Events,Conditions,WindDirDegrees,DateUTC
12:15 AM,23.0,12.2,63,30.19,10.0,North,3.5,-,N/A,,Overcast,350,2014-03-08 06:15:00
12:35 AM,23.0,12.2,63,30.20,10.0,North,4.6,-,N/A,,Overcast,360,2014-03-08 06:35:00
12:55 AM,21.2,12.2,68,30.20,10.0,North,4.6,-,N/A,,Overcast,360,2014-03-08 06:55:00
1:15 AM,21.2,12.2,68,30.21,10.0,NNW,4.6,-,N/A,,Overcast,340,2014-03-08 07:15:00
1:35 AM,21.2,12.2,68,30.22,10.0,Calm,Calm,-,N/A,,Overcast,0,2014-03-08 07:35:00
1:56 AM,21.2,12.2,68,30.22,10.0,Calm,Calm,-,N/A,,Overcast,0,2014-03-08 07:56:00
2:15 AM,19.4,10.4,68,30.22,10.0,NNW,3.5,-,N/A,,Mostly Cloudy,340,2014-03-08 08:15:00
2:35 AM,19.4,10.4,68,30.22,10.0,Calm,Calm,-,N/A,,Scattered Clouds,0,2014-03-08 08:35:00
2:56 AM,17.6,8.6,68,30.23,10.0,Calm,Calm,-,N/A,,Clear,0,2014-03-08 08:56:00
3:15 AM,15.8,8.6,73,30.24,10.0,NW,3.5,-,N/A,,Clear,320,2014-03-08 09:15:00
3:35 AM,17.6,8.6,68,30.23,10.0,Calm,Calm,-,N/A,,Clear,0,2014-03-08 09:35:00
3:56 AM,15.8,8.6,73,30.24,10.0,Calm,Calm,-,N/A,,Clear,0,2014-03-08 09:56:00
4:15 AM,15.8,8.6,73,30.24,10.0,Calm,Calm,-,N/A,,Clear,0,2014-03-08 10:15:00
4:35 AM,14.0,6.8,73,30.24,10.0,Calm,Calm,-,N/A,,Clear,0,2014-03-08 10:35:00
4:56 AM,10.4,5.0,79,30.25,10.0,Calm,Calm,-,N/A,,Clear,0,2014-03-08 10:56:00
5:15 AM,10.4,5.0,79,30.26,10.0,Calm,Calm,-,N/A,,Clear,0,2014-03-08 11:15:00
5:36 AM,10.4,5.0,79,30.26,10.0,Calm,Calm,-,N/A,,Clear,0,2014-03-08 11:36:00
5:55 AM,8.6,3.2,79,30.26,10.0,Calm,Calm,-,N/A,,Clear,0,2014-03-08 11:55:00
6:15 AM,8.6,1.4,73,30.27,10.0,NW,3.5,-,N/A,,Clear,320,2014-03-08 12:15:00
6:36 AM,8.6,3.2,79,30.27,10.0,Calm,Calm,-,N/A,,Clear,0,2014-03-08 12:36:00
6:55 AM,8.6,1.4,73,30.28,10.0,Calm,Calm,-,N/A,,Clear,0,2014-03-08 12:55:00
7:15 AM,10.4,3.2,73,30.28,10.0,Calm,Calm,-,N/A,,Clear,0,2014-03-08 13:15:00
7:36 AM,10.4,3.2,73,30.29,10.0,Calm,Calm,-,N/A,,Clear,0,2014-03-08 13:36:00
7:55 AM,10.4,5.0,79,30.29,10.0,Calm,Calm,-,N/A,,Clear,0,2014-03-08 13:55:00
8:15 AM,14.0,6.8,73,30.29,10.0,NNW,3.5,-,N/A,,Clear,330,2014-03-08 14:15:00
8:36 AM,15.8,6.8,68,30.30,10.0,NNW,4.6,-,N/A,,Clear,330,2014-03-08 14:36:00
8:55 AM,17.6,8.6,68,30.31,10.0,NNW,5.8,-,N/A,,Clear,330,2014-03-08 14:55:00
9:15 AM,17.6,8.6,68,30.30,10.0,NNE,5.8,-,N/A,,Clear,20,2014-03-08 15:15:00
9:35 AM,17.6,8.6,68,30.31,10.0,NNW,5.8,-,N/A,,Clear,340,2014-03-08 15:35:00
9:55 AM,19.4,8.6,63,30.31,10.0,NNW,5.8,-,N/A,,Clear,340,2014-03-08 15:55:00
10:16 AM,19.4,8.6,63,30.31,10.0,NNE,5.8,-,N/A,,Clear,20,2014-03-08 16:16:00
10:35 AM,19.4,8.6,63,30.30,10.0,Calm,Calm,-,N/A,,Clear,0,2014-03-08 16:35:00
10:55 AM,21.2,10.4,63,30.29,10.0,WNW,5.8,-,N/A,,Clear,290,2014-03-08 16:55:00
11:16 AM,21.2,10.4,63,30.29,10.0,Calm,Calm,-,N/A,,Clear,0,2014-03-08 17:16:00
11:35 AM,23.0,10.4,59,30.29,10.0,West,3.5,-,N/A,,Clear,280,2014-03-08 17:35:00
11:55 AM,23.0,10.4,59,30.28,10.0,Calm,Calm,-,N/A,,Clear,0,2014-03-08 17:55:00
12:16 PM,24.8,10.4,54,30.28,10.0,West,3.5,-,N/A,,Clear,260,2014-03-08 18:16:00
12:35 PM,24.8,10.4,54,30.28,10.0,Calm,Calm,-,N/A,,Clear,0,2014-03-08 18:35:00
12:55 PM,24.8,12.2,59,30.26,10.0,West,5.8,-,0.01,,Clear,260,2014-03-08 18:55:00
1:16 PM,24.8,10.4,54,30.26,10.0,Calm,Calm,-,N/A,,Clear,0,2014-03-08 19:16:00
1:35 PM,26.6,12.2,55,30.25,10.0,West,6.9,-,N/A,,Clear,270,2014-03-08 19:35:00
1:55 PM,26.6,12.2,55,30.24,10.0,WNW,5.8,-,N/A,,Clear,290,2014-03-08 19:55:00
2:15 PM,26.6,12.2,55,30.24,10.0,WSW,5.8,-,N/A,,Clear,250,2014-03-08 20:15:00
2:35 PM,26.6,12.2,55,30.23,10.0,West,8.1,-,N/A,,Clear,270,2014-03-08 20:35:00
2:55 PM,28.4,12.2,51,30.23,10.0,West,4.6,-,N/A,,Clear,280,2014-03-08 20:55:00
3:16 PM,28.4,12.2,51,30.22,10.0,West,8.1,-,N/A,,Clear,280,2014-03-08 21:16:00
3:35 PM,28.4,12.2,51,30.22,10.0,WSW,8.1,-,N/A,,Clear,240,2014-03-08 21:35:00
3:55 PM,28.4,12.2,51,30.22,10.0,WSW,6.9,-,N/A,,Clear,240,2014-03-08 21:55:00
4:15 PM,28.4,12.2,51,30.22,10.0,West,6.9,-,N/A,,Clear,280,2014-03-08 22:15:00
4:35 PM,28.4,12.2,51,30.22,10.0,WSW,8.1,-,N/A,,Clear,250,2014-03-08 22:35:00
4:56 PM,28.4,12.2,51,30.22,10.0,West,3.5,-,N/A,,Clear,270,2014-03-08 22:56:00
5:15 PM,28.4,12.2,51,30.22,10.0,WSW,4.6,-,N/A,,Clear,240,2014-03-08 23:15:00
5:35 PM,28.4,12.2,51,30.21,10.0,West,3.5,-,N/A,,Clear,260,2014-03-08 23:35:00
5:56 PM,28.4,12.2,51,30.20,10.0,Calm,Calm,-,N/A,,Clear,0,2014-03-08 23:56:00
6:15 PM,26.6,12.2,55,30.20,10.0,SW,3.5,-,N/A,,Clear,230,2014-03-09 00:15:00
6:35 PM,26.6,12.2,55,30.20,10.0,Calm,Calm,-,N/A,,Clear,0,2014-03-09 00:35:00
6:55 PM,26.6,12.2,55,30.20,10.0,SW,3.5,-,N/A,,Clear,220,2014-03-09 00:55:00
7:15 PM,24.8,12.2,59,30.19,10.0,Calm,Calm,-,N/A,,Clear,0,2014-03-09 01:15:00
7:35 PM,24.8,12.2,59,30.19,10.0,SW,3.5,-,N/A,,Clear,220,2014-03-09 01:35:00
7:55 PM,23.0,10.4,59,30.19,10.0,SSW,4.6,-,N/A,,Clear,200,2014-03-09 01:55:00
8:15 PM,21.2,10.4,63,30.18,10.0,SSW,4.6,-,N/A,,Clear,200,2014-03-09 02:15:00
8:36 PM,21.2,10.4,63,30.18,10.0,SSW,4.6,-,N/A,,Clear,200,2014-03-09 02:36:00
8:55 PM,21.2,10.4,63,30.18,10.0,SSW,4.6,-,N/A,,Clear,200,2014-03-09 02:55:00
9:15 PM,21.2,10.4,63,30.18,10.0,SSW,4.6,-,N/A,,Clear,200,2014-03-09 03:15:00
9:36 PM,19.4,10.4,68,30.17,10.0,South,4.6,-,N/A,,Clear,190,2014-03-09 03:36:00
9:55 PM,19.4,10.4,68,30.16,10.0,SSW,3.5,-,N/A,,Clear,200,2014-03-09 03:55:00
10:15 PM,19.4,10.4,68,30.15,10.0,South,3.5,-,N/A,,Clear,180,2014-03-09 04:15:00
10:36 PM,17.6,10.4,73,30.15,10.0,South,3.5,-,N/A,,Clear,190,2014-03-09 04:36:00
10:55 PM,17.6,10.4,73,30.15,10.0,Calm,Calm,-,N/A,,Clear,0,2014-03-09 04:55:00
11:15 PM,17.6,10.4,73,30.14,10.0,South,4.6,-,N/A,,Clear,170,2014-03-09 05:15:00
11:36 PM,17.6,10.4,73,30.12,10.0,South,5.8,-,N/A,,Clear,180,2014-03-09 05:36:00
11:55 PM,17.6,10.4,73,30.11,10.0,South,6.9,-,N/A,,Clear,170,2014-03-09 05:55:00